Flag for Gaza Strip Weather past 2 weeks in Gaza, Gaza Strip

Now
61 °F

Passing clouds.


Feels Like: 61 °F
Forecast: 58 / 65 °F
Wind: 6 mph from South

Location: Ben Gurion International Airport

Current Time: Dec 22, 2014 at 4:59:50 PM

Latest Report: Dec 22, 2014 at 4:20 PM


Visibility: N/A

Pressure: 30.01 "Hg

Humidity: 83%

Dew point: 55 °F

Location of GazaLocation

Historic Weather in Gaza — Graph

°F

Gaza temperature yesterday

Maximum temperature yesterday: 68 °F (at 11:50 AM)
Minimum temperature yesterday: 52 °F (at 5:50 AM)
Average temperature yesterday: 59 °F

Past Weeks' High & Low Weather Summary

 TemperatureHumidityPressure
High79 °F (Dec 11, 12:50 PM)94% (Dec 8, 3:50 AM)30.24 "Hg (Dec 8, 3:50 AM)
Low48 °F (Dec 16, 6:20 AM)35% (Dec 13, 11:50 AM)29.77 "Hg (Dec 9, 1:50 AM)
Average62 °F72%30.07 "Hg
* Reported Dec 7 3:20 PM — Dec 22 3:50 PM, Gaza, Weather by CustomWeather, © 2014

Note: Actual official high and low records may vary slightly from our data, if they occured in-between our weather recording intervals... More about our weather records

Advertising

Gaza weather history for previous 24 hours

 ConditionsComfort  
Time TempWeatherWind HumidityBarometerVisibility
3:50 PM
Dec 22
61 °FPassing clouds.8 mph88%30.04 "HgN/A
3:20 PM59 °FScattered clouds.8 mph88%30.04 "HgN/A
2:50 PM59 °FPartly sunny.9 mph88%30.04 "HgN/A
2:20 PM59 °FRain. Broken clouds.10 mph82%30.04 "Hg4 mi
1:50 PM63 °FScattered clouds.12 mph73%30.04 "HgN/A
1:20 PM63 °FScattered clouds.12 mph73%30.04 "HgN/A
12:50 PM64 °FScattered clouds.12 mph68%30.04 "HgN/A
12:20 PM64 °FScattered clouds.12 mph68%30.07 "HgN/A
11:50 AM63 °FPassing clouds.9 mph73%30.07 "HgN/A
11:20 AM61 °FPassing clouds.13 mph77%30.09 "HgN/A
10:50 AM63 °FPassing clouds.15 mph73%30.09 "HgN/A
10:20 AM63 °FSunny.14 mph73%30.09 "Hg10 mi
9:50 AM63 °FSunny.15 mph73%30.09 "Hg10 mi
9:20 AM63 °FSunny.12 mph73%30.12 "Hg10 mi
8:50 AM61 °FSunny.9 mph72%30.09 "Hg10 mi
8:20 AM61 °FSunny.5 mph72%30.09 "Hg10 mi
7:50 AM57 °FPassing clouds.5 mph77%30.09 "HgN/A
7:20 AM55 °FPassing clouds.7 mph82%30.09 "HgN/A
6:50 AM54 °FPassing clouds.3 mph82%30.09 "HgN/A
6:20 AM52 °FPassing clouds.3 mph88%30.09 "HgN/A
5:50 AM52 °FPassing clouds.2 mph88%30.09 "HgN/A
5:20 AM52 °FClear.2 mph82%30.09 "Hg10 mi
4:50 AM52 °FClear.3 mph82%30.09 "Hg10 mi
4:20 AM52 °FPassing clouds.5 mph88%30.09 "HgN/A
3:50 AM52 °FPassing clouds.2 mph88%30.12 "HgN/A
3:20 AM52 °FPassing clouds.1 mph82%30.12 "HgN/A
2:50 AM52 °FPassing clouds.2 mph88%30.12 "HgN/A
2:20 AM54 °FPassing clouds.1 mph82%30.12 "HgN/A
1:50 AM52 °FPassing clouds.2 mph88%30.12 "HgN/A
1:20 AM54 °FPassing clouds.2 mph82%30.12 "HgN/A
12:50 AM54 °FPassing clouds.3 mph82%30.15 "HgN/A
12:20 AM54 °FPassing clouds.2 mph88%30.12 "HgN/A
11:20 PM
Dec 21
54 °FPassing clouds.3 mph88%30.15 "HgN/A
10:50 PM55 °FPassing clouds.6 mph82%30.15 "HgN/A
10:20 PM54 °FClear.2 mph88%30.15 "Hg10 mi
9:50 PM55 °FClear.2 mph82%30.15 "Hg10 mi
9:20 PM55 °FClear.5 mph82%30.15 "Hg10 mi
8:50 PM57 °FClear.5 mph82%30.15 "Hg10 mi
8:20 PM57 °FClear.5 mph82%30.15 "Hg10 mi
7:50 PM57 °FClear.5 mph82%30.15 "Hg10 mi
7:20 PM57 °FClear.5 mph82%30.15 "Hg10 mi
6:50 PM59 °FClear.5 mph77%30.15 "Hg10 mi
6:20 PM59 °FClear.3 mph77%30.15 "Hg10 mi
5:50 PM59 °FClear.3 mph72%30.12 "Hg10 mi
5:20 PM61 °FPassing clouds.3 mph68%30.12 "HgN/A
4:50 PM63 °FPassing clouds.3 mph68%30.12 "HgN/A
4:20 PM63 °FPassing clouds.6 mph68%30.12 "HgN/A
Weather by CustomWeather, © 2014

See weather overviewHow to use our weather pages